Location: Znojmo
(48.8500°N, 16.0500°E)
Time: 08:12:15
(UTC+02:00)

ISS - Pass Details

Date: 26 March 2019
Orbit: 408 x 410 km, 51.6° (Epoch: 26 April)

Event Time Altitude Azimuth Distance (km) Brightness Sun altitude
Rises 20:58:40 0° 277° (W) 2,336 1.0 -25.4°
Reaches altitude 10° 21:00:48 10° 283° (WNW) 1,475 -0.2 -25.6°
Enters shadow 21:02:32 27° 298° (WNW) 829 -1.6 -25.9°
